Location: Diebersbach
(48.5163°N, 8.0558°E)
Time: 08:27:23
(UTC+00:00)

Cosmos 1937 Rocket - Pass Details

Date: 20 June 2021
Orbit: 746 x 781 km, 74.0° (Epoch: 26 July)

Event Time Altitude Azimuth Distance (km) Brightness Sun altitude
Rises 00:25:50 0° 336° (NNW) 3,277 7.6 -16.9°
Reaches altitude 10° 00:28:14 10° 337° (NNW) 2,346 6.8 -16.9°
Maximum altitude 00:33:35 89° 254° (WSW) 788 3.5 -16.6°
Enters shadow 00:37:19 20° 159° (SSE) 1,733 4.9 -16.5°
